Theta_e
338 331 319 317 300 297 294 298 304 306 309 314 314 311 310 312 312 305 326 336 340 341 349 353 356 354 353 352 350 349 348 347 345 342 340 338 338 336 336 335 334 334 334 335 336 337 337 337 336
325 321 312 309 296 291 293 302 304 308 315 317 315 314 316 316 323 327 327 339 342 344 348 349 355 354 353 352 350 349 348 347 345 343 340 339 338 338 337 336 336 336 337 338 337 337 337 339 340
326 323 304 301 297 294 296 304 310 314 318 317 315 317 317 319 327 329 332 339 343 344 347 347 354 354 353 352 351 349 348 348 346 343 342 341 340 340 339 338 338 338 338 339 340 340 340 340 341
319 313 305 297 296 301 303 307 312 311 317 317 317 315 317 324 329 329 339 340 341 343 345 349 353 354 353 352 351 349 348 348 347 346 344 343 342 343 342 339 340 340 341 342 342 343 343 343 343
315 304 294 294 297 303 308 309 309 308 315 315 316 314 314 324 328 338 339 339 338 341 343 346 353 353 353 352 351 349 348 348 347 347 346 344 345 344 342 341 342 341 342 342 343 344 345 346 345
305 302 293 292 296 303 308 309 310 311 316 316 314 316 314 322 329 337 339 337 337 339 340 345 352 353 352 352 351 349 348 348 348 348 347 347 346 346 343 343 343 343 343 344 345 346 347 347 346
301 297 293 295 298 302 308 309 309 308 310 311 316 314 315 319 324 333 336 335 335 337 338 343 345 349 353 351 350 349 348 348 348 348 347 348 348 347 346 346 344 344 345 346 346 347 346 345 345
305 299 294 296 297 299 309 309 311 311 311 317 319 311 310 318 324 325 335 334 334 332 335 339 342 343 343 345 351 350 349 348 348 348 348 348 349 349 348 347 347 345 347 348 348 346 344 343 342
306 294 292 296 298 301 307 310 315 316 313 313 316 316 319 322 321 318 322 328 332 334 331 336 338 340 339 341 345 350 350 350 349 348 348 346 342 343 342 346 345 346 348 347 347 345 344 341 340
309 295 295 300 302 301 305 306 313 314 313 311 312 318 320 320 318 314 313 317 330 332 333 336 336 336 337 338 338 343 342 342 343 341 340 341 337 337 341 343 346 346 348 347 346 345 342 340 329
308 304 306 304 304 307 307 307 307 308 306 310 309 313 316 316 316 314 314 313 317 332 334 337 337 334 335 334 335 341 341 340 341 339 336 337 337 336 339 333 336 339 346 339 340 338 336 329 328
304 310 312 312 315 314 312 311 310 308 308 312 314 315 315 315 315 314 314 314 313 319 332 337 338 336 333 333 333 335 338 338 339 339 337 338 335 331 330 330 329 335 335 335 331 330 328 328 329
299 305 309 311 309 309 313 311 310 310 313 314 314 315 314 314 314 313 315 315 314 311 321 334 338 337 336 331 330 333 336 335 337 338 339 338 334 332 328 327 328 329 330 330 327 325 325 325 326
297 298 301 302 303 306 306 307 309 310 314 313 314 313 313 312 312 311 311 312 313 315 313 328 337 338 338 334 330 331 335 334 336 338 338 337 334 330 328 327 328 327 327 327 327 325 325 325 326
298 294 297 298 298 299 303 300 302 309 313 311 312 313 313 311 312 312 313 312 314 316 316 320 335 338 337 336 334 332 333 334 335 337 338 337 333 330 329 329 329 327 328 327 325 325 325 324 324
294 294 291 298 300 301 301 295 306 309 310 310 310 310 311 312 313 314 313 312 314 314 314 315 331 336 337 337 336 335 335 334 334 336 336 335 334 333 331 331 330 330 327 326 325 324 324 327 322
290 287 288 292 299 299 300 297 304 307 307 306 308 309 310 310 310 311 314 315 315 315 315 314 324 334 336 337 336 335 335 336 335 334 335 335 334 333 332 329 329 328 327 326 325 323 322 320 320
287 288 291 291 296 298 296 297 302 304 304 303 305 306 308 309 310 313 314 315 314 313 314 315 325 333 335 335 330 331 332 335 334 334 335 336 334 334 331 330 328 327 326 326 324 324 322 322 320
290 289 289 293 297 296 295 296 299 301 303 303 305 306 307 306 310 312 313 314 313 313 314 315 324 327 332 331 330 329 332 331 332 334 336 335 334 334 333 329 327 327 326 326 324 322 321 321 323
289 287 287 292 296 294 293 293 297 300 301 303 304 305 305 306 308 310 312 313 313 314 314 314 321 327 332 333 334 330 333 329 329 332 334 335 335 334 331 328 327 326 325 323 322 320 317 318 319
287 287 288 288 293 295 293 291 293 298 300 302 303 303 304 305 306 309 310 310 312 311 313 315 321 329 331 331 330 327 327 327 325 328 330 331 332 332 330 328 327 325 324 322 320 319 318 316 314
284 290 292 292 289 284 292 283 291 295 296 299 300 300 302 305 306 307 309 308 308 311 311 316 323 330 332 332 330 329 326 326 323 329 326 327 330 330 329 328 326 324 322 320 319 320 318 316 313
286 292 291 290 287 286 288 283 289 293 292 296 299 301 303 304 306 305 307 307 307 311 324 328 331 333 333 331 330 327 324 323 324 326 324 328 325 328 328 328 326 322 320 320 320 319 317 317 315
291 289 289 288 286 279 286 286 287 290 293 295 299 300 303 303 304 307 319 322 323 331 331 332 333 331 331 331 328 327 324 324 324 324 323 322 322 325 328 325 323 321 320 320 320 320 319 318 316
288 281 276 276 277 279 288 286 288 293 296 297 297 299 301 302 309 317 315 322 327 330 330 332 331 327 326 326 325 325 324 324 324 323 323 321 322 320 320 321 320 319 321 321 321 320 319 317 317
283 283 277 274 276 279 288 283 288 296 299 301 301 301 301 309 317 319 321 324 327 327 328 329 326 324 324 325 323 322 323 323 324 323 322 321 321 320 320 320 320 321 322 323 322 321 320 318 318
285 280 285 279 282 278 283 288 294 297 298 299 299 300 306 315 317 322 324 325 325 324 324 325 324 322 322 322 322 321 322 322 322 321 320 320 320 320 320 320 320 321 322 323 322 321 320 320 319
287 289 280 278 275 275 281 284 286 291 295 297 298 298 307 315 320 323 323 323 322 323 323 324 324 322 322 323 324 323 321 321 321 321 320 320 319 319 320 319 319 321 323 324 321 320 319 319 319
285 283 284 282 280 277 277 281 292 293 295 296 300 299 312 317 322 322 322 323 323 322 323 323 323 323 322 323 322 322 321 321 321 320 319 318 318 319 320 321 320 321 321 323 320 321 320 321 319
290 285 285 278 278 281 281 283 295 294 296 301 302 307 315 320 322 322 323 323 323 321 323 323 323 322 322 322 321 320 320 320 319 319 318 319 319 319 320 320 320 323 323 322 321 322 323 321 321
Wind_Speed
6 4 3 3 4 5 4 6 3 6 2 3 1 4 6 1 6 7 3 10 10 15 15 17 20 20 19 18 17 17 17 17 16 16 16 16 15 14 12 11 10 9 8 7 6 6 5 3 2
3 3 2 2 4 2 6 5 9 3 5 3 5 4 4 3 3 3 5 6 11 17 16 17 22 21 20 20 18 18 18 17 17 17 17 16 15 14 13 12 11 10 9 8 6 5 5 4 3
3 1 3 3 3 5 6 3 2 7 9 5 2 1 8 3 5 6 1 12 13 14 16 16 24 23 23 22 21 20 19 19 18 18 18 17 17 16 14 13 12 11 10 9 8 7 6 6 6
3 4 3 3 7 6 5 3 4 7 7 4 2 5 3 5 6 5 11 13 14 14 14 19 25 24 24 23 22 22 22 21 20 19 18 18 17 16 15 14 13 12 11 10 10 9 8 8 7
2 4 1 4 6 5 4 6 8 5 4 2 1 4 3 2 2 7 12 13 16 13 13 16 24 23 22 22 22 21 21 21 22 21 20 19 18 17 16 15 14 12 11 11 10 10 9 9 9
2 2 2 5 6 2 3 7 6 2 2 3 1 2 1 6 8 6 7 10 9 15 15 14 22 22 22 22 22 22 21 20 21 21 21 19 18 17 16 15 14 12 11 10 10 11 10 9 10
4 3 5 4 3 5 4 3 1 2 5 5 4 2 3 3 5 6 3 2 1 6 9 11 15 18 22 21 21 21 22 21 20 20 20 19 19 17 16 14 14 12 12 12 11 11 10 10 9
5 4 2 5 3 5 4 4 2 5 4 7 2 2 3 6 10 7 5 5 5 5 12 12 10 12 14 14 22 21 20 20 20 19 19 19 18 17 16 14 12 13 12 13 11 10 10 10 10
5 2 5 6 6 4 6 7 17 2 8 4 6 3 7 6 7 5 5 5 6 8 8 9 12 13 13 12 14 19 21 19 18 17 18 15 7 9 11 10 12 13 12 11 11 10 9 10 11
5 6 10 8 6 2 4 3 14 15 18 10 5 8 6 6 5 8 8 11 12 11 12 12 12 14 12 10 10 11 10 10 9 9 9 7 5 6 8 9 13 13 13 12 11 10 10 9 3
7 13 8 5 8 5 4 11 4 6 13 18 8 7 12 5 9 9 7 9 14 19 9 15 15 13 14 13 8 7 6 6 6 9 7 6 5 5 5 3 3 4 10 3 5 5 3 4 4
7 8 13 10 9 8 13 7 15 14 19 13 11 13 7 13 12 10 9 9 9 10 16 16 15 14 15 10 9 10 9 8 8 10 11 8 5 5 5 3 5 4 4 5 4 3 4 5 5
15 13 8 9 10 10 11 19 23 22 14 13 12 14 14 13 11 9 10 9 9 7 13 14 15 16 15 14 9 10 11 11 11 10 12 10 8 7 5 4 4 4 4 4 4 4 4 5 5
1 2 13 10 12 8 12 20 19 21 18 16 16 12 13 14 12 8 8 10 9 11 10 14 15 17 14 16 16 12 10 11 10 9 10 13 8 6 6 5 5 5 4 4 5 5 4 4 4
7 12 12 13 4 6 6 25 29 15 17 20 20 18 15 12 10 12 10 10 12 11 12 12 17 16 16 18 15 12 11 10 10 9 12 13 10 8 8 7 7 4 5 6 4 4 3 4 3
2 4 13 14 15 7 7 39 13 2 11 19 15 11 11 15 13 12 10 11 13 13 11 10 11 16 17 17 14 10 10 10 9 9 9 13 12 13 9 8 6 4 4 4 4 4 3 3 3
5 8 9 2 7 9 20 39 16 11 13 19 15 15 16 13 11 11 14 17 16 14 14 9 10 14 18 14 11 11 9 9 8 8 8 12 13 12 9 4 3 5 4 4 4 3 3 3 4
11 13 1 3 4 11 18 30 18 8 10 12 15 17 17 18 18 17 17 15 12 11 10 8 9 12 13 8 5 4 4 6 6 8 8 12 9 9 5 6 6 5 4 4 3 5 3 4 4
10 4 1 2 5 8 17 23 18 11 17 21 23 21 20 11 13 15 16 14 11 10 9 10 10 9 9 6 7 5 9 7 7 7 10 10 9 11 11 5 5 5 6 5 4 2 3 2 1
8 9 11 6 11 6 13 13 15 14 17 16 18 18 15 14 14 17 15 11 10 11 9 7 9 10 10 8 6 3 8 4 5 5 8 10 9 10 9 7 6 6 4 4 3 4 2 2 3
6 7 5 7 11 19 16 20 18 20 15 18 18 12 10 14 16 15 13 12 11 10 11 9 10 12 10 9 7 5 7 7 4 5 5 5 7 8 8 7 5 5 4 4 4 4 6 3 2
17 5 7 4 4 9 2 21 24 19 23 17 17 9 12 15 12 11 14 13 11 14 6 9 7 8 8 12 8 12 6 8 3 6 4 4 5 6 6 6 6 6 4 5 4 4 3 3 3
6 11 8 13 11 4 7 6 15 7 13 22 20 17 18 14 14 12 14 10 9 6 5 6 9 8 9 8 10 7 8 5 5 6 8 8 4 6 6 6 6 5 4 4 5 4 4 3 3
5 3 10 9 3 8 12 11 25 10 12 11 10 10 11 10 10 8 6 3 3 5 7 7 11 10 10 10 9 11 13 10 9 7 6 6 4 4 5 6 6 5 5 5 4 4 5 4 3
4 5 1 2 4 13 7 16 19 5 5 6 7 11 10 9 7 4 1 4 6 8 8 8 10 9 8 9 9 10 11 11 13 10 8 7 4 3 5 5 5 4 4 4 4 4 5 4 4
7 9 6 7 5 5 10 14 11 9 13 16 15 16 8 8 4 5 5 6 7 9 8 10 10 11 9 9 8 8 9 7 8 8 7 5 4 5 6 5 5 5 5 4 4 3 4 5 5
1 5 7 4 5 1 7 8 10 12 21 14 13 7 9 7 6 6 7 7 7 8 7 11 12 10 10 9 9 8 8 9 8 7 5 4 4 4 6 5 5 4 3 4 4 4 4 5 4
5 4 3 1 4 5 6 7 12 6 9 6 7 11 8 7 8 7 7 7 6 8 8 11 12 12 10 10 9 8 7 7 7 6 6 6 5 5 5 4 2 2 4 5 5 3 4 5 4
2 2 3 4 5 4 4 8 7 9 8 11 17 10 10 11 11 9 8 7 8 8 10 10 12 12 9 9 8 9 7 7 6 6 6 6 5 6 4 4 3 4 5 4 4 5 5 5 4
0 4 4 4 6 5 3 10 7 3 7 10 16 7 10 10 10 10 10 10 10 10 10 10 10 11 8 7 8 7 7 6 6 6 6 6 6 3 4 3 2 5 5 3 4 4 4 5 4
Wind_Direction
192 198 247 59 52 70 269 262 256 299 153 220 37 157 186 228 178 205 343 165 131 140 152 163 169 173 172 167 163 161 153 152 148 144 142 142 142 142 147 146 148 149 153 157 157 159 163 174 197
170 195 22 79 105 110 262 235 232 268 300 223 150 129 89 256 264 141 113 157 147 149 156 167 174 176 175 170 168 168 161 157 153 155 153 151 151 157 162 162 164 167 170 175 181 187 193 194 211
160 198 93 154 180 176 221 225 287 322 279 292 101 67 147 184 313 179 134 142 142 153 162 170 176 179 177 175 173 172 167 163 163 163 162 161 165 170 171 172 176 180 184 190 198 206 214 218 222
163 37 9 158 228 243 225 284 319 308 299 287 178 73 357 200 165 207 146 147 149 164 169 177 180 183 180 177 177 175 173 170 169 170 171 170 175 179 177 179 182 191 197 202 207 217 224 233 237
23 78 239 246 237 231 250 278 271 283 257 280 60 181 135 227 274 139 157 157 163 166 178 181 184 186 183 179 180 180 180 176 174 175 177 177 180 185 184 185 188 199 210 214 219 227 237 244 243
49 113 123 236 239 150 268 235 248 325 311 285 2 63 245 298 147 178 164 175 166 173 179 186 189 189 185 185 185 184 185 184 183 180 180 181 185 188 190 191 193 202 217 224 233 239 245 243 244
139 119 226 233 266 337 256 272 241 5 342 314 163 239 214 268 237 159 211 71 103 167 188 189 190 193 192 189 189 189 189 188 191 186 186 186 188 189 193 197 198 204 217 229 233 246 247 244 244
141 126 263 251 201 266 263 291 101 23 346 342 106 211 242 228 201 146 125 130 171 196 189 194 199 202 194 192 194 193 195 193 194 194 194 193 190 192 196 196 201 207 220 232 241 242 249 249 247
138 110 214 240 180 217 315 20 292 140 304 10 309 318 237 245 141 139 157 178 182 204 200 206 195 200 204 199 198 195 199 200 198 199 201 199 191 192 197 194 201 213 225 231 236 241 251 255 252
164 181 217 209 207 95 329 262 261 290 288 282 278 288 297 306 249 181 200 209 207 208 207 200 207 202 196 199 196 194 195 197 198 197 199 196 186 188 184 195 208 217 223 227 237 235 243 254 243
201 222 207 238 231 258 235 270 231 283 259 256 263 273 293 213 220 249 224 209 207 212 197 203 205 203 195 201 187 189 189 189 191 190 182 178 181 192 196 176 202 205 224 210 232 232 230 229 230
253 205 217 247 250 259 261 271 261 225 246 265 268 265 290 287 270 251 234 208 210 194 208 208 202 199 203 196 199 192 189 192 194 193 179 176 181 186 191 194 194 195 193 198 201 205 226 234 235
240 240 230 243 259 255 267 259 260 262 248 262 267 274 271 255 250 262 261 286 279 197 219 210 196 202 200 198 193 196 199 197 198 192 184 178 182 190 179 203 190 200 182 188 198 207 221 230 233
156 173 245 243 250 273 265 271 264 261 270 261 255 249 241 252 255 265 248 243 244 246 216 209 206 206 194 200 196 199 198 200 194 192 191 184 168 179 185 197 203 203 183 194 198 196 207 228 226
273 283 282 249 174 238 349 274 253 253 264 268 273 276 265 238 241 239 258 255 252 250 242 192 201 195 197 202 201 194 200 195 193 191 187 181 170 172 187 203 207 188 192 195 177 199 202 224 226
212 167 242 248 230 210 165 256 243 234 237 256 258 260 261 270 273 283 263 251 259 254 237 207 200 192 198 196 201 200 193 191 191 189 180 178 180 185 193 201 195 182 180 164 171 183 211 221 219
237 241 223 291 201 205 201 259 262 255 263 263 267 267 267 272 276 270 270 269 263 249 250 227 196 193 193 202 187 193 189 191 187 177 174 179 189 195 183 177 178 187 156 166 177 187 182 213 244
221 231 57 169 225 211 230 253 253 250 261 270 268 266 267 271 273 277 270 264 256 253 240 231 190 199 185 176 143 133 148 171 163 170 173 176 185 173 147 186 178 166 155 186 178 200 201 216 234
298 324 336 299 245 229 233 254 264 260 254 253 256 259 262 262 265 265 266 268 265 255 237 205 168 175 156 155 160 159 190 166 167 166 167 165 167 165 173 172 148 169 187 192 182 165 240 297 215
254 269 271 286 276 272 287 289 291 271 261 255 257 260 262 266 271 270 267 264 260 247 243 203 201 166 181 180 186 140 159 146 140 146 159 172 165 163 165 154 168 183 163 178 177 168 180 227 184
239 229 257 258 297 290 297 290 273 268 253 261 260 246 249 247 256 266 265 256 249 238 234 206 198 181 170 140 115 96 97 110 106 144 147 152 146 150 149 156 167 164 163 185 194 191 187 205 201
254 233 260 273 212 256 178 290 271 260 255 249 250 242 244 250 248 252 263 263 235 240 220 215 189 154 142 147 133 152 147 155 148 153 107 120 137 143 142 154 150 163 163 192 199 189 184 150 206
263 226 231 224 248 277 241 282 278 199 246 246 253 246 248 244 248 254 254 264 283 229 198 144 129 122 133 123 130 132 108 102 109 112 111 141 136 132 147 142 146 174 175 190 185 174 186 181 169
254 241 222 232 165 249 226 219 272 235 236 234 231 243 241 248 253 271 323 17 67 89 97 109 115 112 119 126 130 131 125 123 117 118 119 127 123 136 130 148 172 157 172 185 194 194 199 196 196
167 84 216 131 196 231 242 203 245 292 277 246 261 265 260 276 272 266 167 107 92 83 90 100 113 104 105 108 109 121 124 130 131 142 141 141 135 137 162 160 156 170 187 193 187 198 203 194 197
186 167 182 183 189 236 234 238 253 231 239 259 264 257 244 231 193 158 130 94 87 89 89 104 104 97 93 95 97 97 110 122 130 137 142 143 148 151 162 161 176 192 186 201 196 216 216 204 212
232 176 204 6 229 193 245 284 290 269 268 261 257 232 213 194 161 135 106 99 103 97 96 107 100 92 93 99 100 98 109 115 128 125 120 128 124 146 158 165 171 182 210 216 212 220 230 221 220
175 214 142 86 235 241 260 251 234 303 267 306 249 227 194 153 136 123 115 108 95 96 98 101 104 103 103 102 107 111 109 109 115 119 136 143 143 149 155 153 155 205 223 228 211 225 244 217 226
157 243 222 181 207 225 290 256 211 229 288 289 289 223 168 150 141 131 123 109 111 105 110 110 108 109 105 109 113 113 113 119 124 134 142 149 143 153 163 174 196 229 243 245 232 224 239 222 219
63 211 165 176 238 248 245 259 291 303 321 302 295 160 129 134 132 135 128 126 123 115 115 121 119 118 122 118 113 112 118 124 130 137 148 147 158 158 168 202 217 262 240 221 232 233 234 232 228